Home   Weather   Loma Linda   Past weeks

Flag for USA Past Weather in Loma Linda, California, USA — Yesterday and Last 2 Weeks

Now
81 °F

Partly sunny.


Feels Like: 79 °F
Forecast: 50 / 85 °F
Wind: 6 mph from West

Location: Norton Air Force Base / San Bern

Current Time: Apr 26, 2017 at 4:59:02 pm

Latest Report: Apr 26, 2017 at 3:50 pm


Visibility: 5 mi

Pressure: 29.87 "Hg

Humidity: 26%

Dew Point: 43 °F

Location of Loma LindaLocation

Past Weather in Loma Linda — Graph

°F

Loma Linda Temperature Yesterday

Maximum temperature yesterday: 75 °F (at 2:50 pm)
Minimum temperature yesterday: 56 °F (at 2:57 am)
Average temperature yesterday: 63 °F

High & Low Weather Summary for the Past Weeks

 TemperatureHumidityPressure
High95 °F (Apr 22, 1:50 pm)86% (Apr 19, 3:57 am)30.13 "Hg (Apr 19, 3:57 am)
Low46 °F (Apr 14, 5:18 am)9% (Apr 21, 4:49 pm)29.80 "Hg (Apr 23, 3:50 pm)
Average65 °F50%29.98 "Hg
* Reported Apr 11 2:50 pm — Apr 26 2:50 pm, Loma Linda, Weather by CustomWeather, © 2017

Note: Actual official high and low records may vary slightly from our data, if they occured in-between our weather recording intervals... More about our weather records

Advertising

Loma Linda Weather History for the Previous 24 Hours

Scroll right to see more
 ConditionsComfort  
Time TempWeatherWind HumidityBarometerVisibility
2:50 pm
Wed, Apr 26
82 °FPartly sunny.7 mph21%29.87 "Hg5 mi
1:50 pm81 °FPartly sunny.9 mph24%29.89 "Hg7 mi
11:48 am75 °FPartly sunny.No wind29%29.91 "Hg7 mi
10:50 am72 °FPartly sunny.No wind33%29.92 "Hg7 mi
9:46 am66 °FBroken clouds.No wind43%29.93 "Hg10 mi
7:45 am59 °FBroken clouds.No wind59%29.92 "Hg10 mi
7:00 am55 °FBroken clouds.No wind63%29.91 "Hg10 mi
5:37 am54 °FClear.No wind68%29.90 "Hg10 mi
5:18 am55 °FClear.No wind65%29.90 "Hg10 mi
4:58 am56 °FClear.No wind66%29.90 "Hg10 mi
4:18 am56 °FClear.5 mph64%29.90 "Hg10 mi
3:58 am56 °FClear.No wind65%29.91 "Hg10 mi
3:37 am57 °FClear.No wind62%29.90 "Hg10 mi
3:18 am57 °FClear.No wind61%29.90 "Hg10 mi
2:58 am57 °FClear.No wind62%29.90 "Hg10 mi
2:18 am59 °FClear.No wind58%29.89 "Hg10 mi
1:58 am57 °FClear.No wind59%29.89 "Hg10 mi
1:18 am60 °FClear.No wind53%29.91 "Hg10 mi
12:58 am58 °FClear.No wind56%29.92 "Hg10 mi
12:18 am59 °FClear.5 mph55%29.92 "Hg10 mi
11:37 pm
Tue, Apr 25
64 °FClear.3 mph47%29.92 "Hg10 mi
11:18 pm64 °FClear.3 mph46%29.92 "Hg10 mi
10:58 pm64 °FClear.5 mph46%29.93 "Hg10 mi
10:18 pm64 °FClear.5 mph45%29.92 "Hg10 mi
9:58 pm66 °FClear.3 mph39%29.93 "Hg10 mi
9:37 pm67 °FClear.No wind37%29.92 "Hg10 mi
8:50 pm64 °FPassing clouds.5 mph40%29.90 "Hg7 mi
7:50 pm66 °FPassing clouds.8 mph37%29.88 "Hg7 mi
6:50 pm70 °FMore clouds than sun.10 mph33%29.87 "Hg6 mi
5:50 pm72 °FOvercast.10 mph33%29.87 "Hg6 mi
4:50 pm75 °FOvercast.17 mph29%29.87 "Hg5 mi
Weather by CustomWeather, © 2017

See weather overviewHow to use our weather pages